Time,TemperatureF,DewpointF,PressureIn,WindDirection,WindDirectionDegrees,WindSpeedMPH,WindSpeedGustMPH,Humidity,HourlyPrecipIn,Conditions,Clouds,dailyrainin,SoftwareType,DateUTC
2013-05-30 00:00:00,72.5,65.3,29.76,SE,135,0.0,0.0,73,0.00,,,0.00,fowsr,2013-05-30 04:00:00,
2013-05-30 00:05:00,72.5,65.3,29.76,SE,135,0.0,2.2,73,0.00,,,0.00,fowsr,2013-05-30 04:05:00,
2013-05-30 00:10:00,72.5,65.3,29.76,SE,135,0.0,0.7,73,0.00,,,0.00,fowsr,2013-05-30 04:10:00,
2013-05-30 00:15:00,72.3,65.4,29.76,East,90,0.0,0.0,74,0.00,,,0.00,fowsr,2013-05-30 04:15:00,
2013-05-30 00:20:00,72.3,65.4,29.76,East,90,0.0,2.2,74,0.00,,,0.00,fowsr,2013-05-30 04:20:00,
2013-05-30 00:30:00,72.0,65.1,29.77,SE,135,0.0,0.0,74,0.00,,,0.00,fowsr,2013-05-30 04:30:00,
2013-05-30 00:35:00,71.8,64.9,29.76,SE,135,0.0,1.6,74,0.00,,,0.00,fowsr,2013-05-30 04:35:00,
2013-05-30 00:40:00,71.6,64.7,29.76,SE,135,0.0,0.7,74,0.00,,,0.00,fowsr,2013-05-30 04:40:00,
2013-05-30 00:45:00,71.4,65.2,29.76,SE,135,0.0,0.0,76,0.00,,,0.00,fowsr,2013-05-30 04:45:00,
2013-05-30 00:50:00,71.4,65.2,29.76,SE,135,0.0,0.0,76,0.00,,,0.00,fowsr,2013-05-30 04:50:00,
2013-05-30 00:55:00,71.1,65.1,29.76,East,90,0.0,1.6,77,0.00,,,0.00,fowsr,2013-05-30 04:55:00,
2013-05-30 01:00:00,70.7,64.8,29.76,East,90,0.0,0.0,77,0.00,,,0.00,fowsr,2013-05-30 05:00:00,
2013-05-30 01:05:00,70.5,64.9,29.76,South,180,0.0,0.7,78,0.00,,,0.00,fowsr,2013-05-30 05:05:00,
2013-05-30 01:10:00,70.3,64.7,29.76,SE,135,0.0,0.0,78,0.00,,,0.00,fowsr,2013-05-30 05:10:00,
2013-05-30 01:15:00,70.3,65.0,29.76,SE,135,0.0,0.0,79,0.00,,,0.00,fowsr,2013-05-30 05:15:00,
2013-05-30 01:20:00,70.2,64.8,29.76,SE,135,0.0,0.0,79,0.00,,,0.00,fowsr,2013-05-30 05:20:00,
2013-05-30 01:25:00,70.0,64.6,29.77,SE,135,0.0,0.7,79,0.00,,,0.00,fowsr,2013-05-30 05:25:00,
2013-05-30 01:30:00,69.8,64.5,29.77,SE,135,0.0,0.7,79,0.00,,,0.00,fowsr,2013-05-30 05:30:00,
2013-05-30 01:35:00,69.6,64.8,29.77,SE,135,0.0,0.0,81,0.00,,,0.00,fowsr,2013-05-30 05:35:00,
2013-05-30 01:40:00,69.4,64.7,29.77,SE,135,0.0,0.0,81,0.00,,,0.00,fowsr,2013-05-30 05:40:00,
2013-05-30 01:45:00,69.3,64.5,29.77,SE,135,0.0,0.0,81,0.00,,,0.00,fowsr,2013-05-30 05:45:00,
2013-05-30 01:50:00,69.3,64.5,29.77,SE,135,0.0,0.0,81,0.00,,,0.00,fowsr,2013-05-30 05:50:00,
2013-05-30 01:55:00,69.1,64.6,29.77,SE,135,0.0,0.0,82,0.00,,,0.00,fowsr,2013-05-30 05:55:00,
2013-05-30 02:00:00,68.9,64.4,29.77,SE,135,0.0,0.7,82,0.00,,,0.00,fowsr,2013-05-30 06:00:00,
2013-05-30 02:05:00,68.9,64.4,29.77,SE,135,0.0,0.7,82,0.00,,,0.00,fowsr,2013-05-30 06:05:00,
2013-05-30 02:10:00,68.7,64.2,29.77,SE,135,0.0,0.0,82,0.00,,,0.00,fowsr,2013-05-30 06:10:00,
2013-05-30 02:15:00,68.5,64.3,29.77,SE,135,0.0,0.0,83,0.00,,,0.00,fowsr,2013-05-30 06:15:00,
2013-05-30 02:20:00,68.5,64.3,29.76,SE,135,0.0,0.0,83,0.00,,,0.00,fowsr,2013-05-30 06:20:00,
2013-05-30 02:25:00,68.4,64.2,29.76,East,90,0.0,0.0,83,0.00,,,0.00,fowsr,2013-05-30 06:25:00,
2013-05-30 02:30:00,68.4,64.4,29.76,East,90,0.0,0.0,84,0.00,,,0.00,fowsr,2013-05-30 06:30:00,
2013-05-30 02:35:00,68.2,64.3,29.76,East,90,0.0,0.0,84,0.00,,,0.00,fowsr,2013-05-30 06:35:00,
2013-05-30 02:40:00,68.2,64.3,29.76,East,90,0.0,0.0,84,0.00,,,0.00,fowsr,2013-05-30 06:40:00,
2013-05-30 02:45:00,68.0,64.1,29.76,East,90,0.0,0.0,84,0.00,,,0.00,fowsr,2013-05-30 06:45:00,
2013-05-30 02:50:00,68.0,64.1,29.76,East,90,0.0,0.0,84,0.00,,,0.00,fowsr,2013-05-30 06:50:00,
2013-05-30 02:55:00,67.8,64.4,29.77,East,90,0.0,0.0,86,0.00,,,0.00,fowsr,2013-05-30 06:55:00,
2013-05-30 03:00:00,67.6,64.3,29.77,East,90,0.0,0.0,86,0.00,,,0.00,fowsr,2013-05-30 07:00:00,
2013-05-30 03:10:00,67.3,64.2,29.76,East,90,0.0,0.0,87,0.00,,,0.00,fowsr,2013-05-30 07:10:00,
2013-05-30 03:15:00,67.1,64.0,29.76,East,90,0.0,0.0,87,0.00,,,0.00,fowsr,2013-05-30 07:15:00,
2013-05-30 03:20:00,66.9,63.8,29.77,East,90,0.0,0.0,87,0.00,,,0.00,fowsr,2013-05-30 07:20:00,
2013-05-30 03:25:00,66.7,63.9,29.76,East,90,0.0,0.0,88,0.00,,,0.00,fowsr,2013-05-30 07:25:00,
2013-05-30 03:30:00,66.6,63.7,29.76,East,90,0.0,0.0,88,0.00,,,0.00,fowsr,2013-05-30 07:30:00,
2013-05-30 03:35:00,66.4,63.5,29.77,East,90,0.0,0.0,88,0.00,,,0.00,fowsr,2013-05-30 07:35:00,
2013-05-30 03:40:00,66.4,63.8,29.76,East,90,0.0,0.0,89,0.00,,,0.00,fowsr,2013-05-30 07:40:00,
2013-05-30 03:45:00,66.2,63.6,29.77,East,90,0.0,0.0,89,0.00,,,0.00,fowsr,2013-05-30 07:45:00,
2013-05-30 03:50:00,66.2,63.6,29.77,East,90,0.0,0.0,89,0.00,,,0.00,fowsr,2013-05-30 07:50:00,
2013-05-30 03:55:00,66.0,63.9,29.77,East,90,0.0,0.0,91,0.00,,,0.00,fowsr,2013-05-30 07:55:00,
2013-05-30 04:00:00,65.7,63.6,29.77,East,90,0.0,0.0,91,0.00,,,0.00,fowsr,2013-05-30 08:00:00,
2013-05-30 04:05:00,65.7,63.6,29.77,East,90,0.0,0.0,91,0.00,,,0.00,fowsr,2013-05-30 08:05:00,
2013-05-30 04:10:00,65.3,63.4,29.77,East,90,0.0,0.0,92,0.00,,,0.00,fowsr,2013-05-30 08:10:00,
2013-05-30 04:15:00,65.1,63.3,29.77,East,90,0.0,0.0,92,0.00,,,0.00,fowsr,2013-05-30 08:15:00,
2013-05-30 04:20:00,64.9,63.1,29.77,East,90,0.0,0.0,92,0.00,,,0.00,fowsr,2013-05-30 08:20:00,
2013-05-30 04:25:00,64.8,62.9,29.77,East,90,0.0,0.0,92,0.00,,,0.00,fowsr,2013-05-30 08:25:00,
2013-05-30 04:30:00,64.8,62.9,29.77,East,90,0.0,0.0,92,0.00,,,0.00,fowsr,2013-05-30 08:30:00,
2013-05-30 04:35:00,64.6,62.7,29.77,East,90,0.0,0.0,92,0.00,,,0.00,fowsr,2013-05-30 08:35:00,
2013-05-30 04:40:00,64.4,62.6,29.77,East,90,0.0,0.0,92,0.00,,,0.00,fowsr,2013-05-30 08:40:00,
2013-05-30 04:45:00,64.4,62.8,29.77,East,90,0.0,0.0,93,0.00,,,0.00,fowsr,2013-05-30 08:45:00,
2013-05-30 04:50:00,64.4,62.8,29.77,East,90,0.0,0.0,93,0.00,,,0.00,fowsr,2013-05-30 08:50:00,
2013-05-30 04:55:00,64.2,62.4,29.77,East,90,0.0,0.0,92,0.00,,,0.00,fowsr,2013-05-30 08:55:00,
2013-05-30 05:00:00,64.2,62.4,29.77,East,90,0.0,0.0,92,0.00,,,0.00,fowsr,2013-05-30 09:00:00,
2013-05-30 05:05:00,64.2,62.4,29.78,East,90,0.0,0.0,92,0.00,,,0.00,fowsr,2013-05-30 09:05:00,
2013-05-30 05:10:00,64.0,62.2,29.77,East,90,0.0,0.0,92,0.00,,,0.00,fowsr,2013-05-30 09:10:00,
2013-05-30 05:15:00,64.0,62.2,29.77,East,90,0.0,0.0,92,0.00,,,0.00,fowsr,2013-05-30 09:15:00,
2013-05-30 05:20:00,64.0,62.2,29.78,East,90,0.0,0.0,92,0.00,,,0.00,fowsr,2013-05-30 09:20:00,
2013-05-30 05:25:00,63.9,62.0,29.78,East,90,0.0,0.0,92,0.00,,,0.00,fowsr,2013-05-30 09:25:00,
2013-05-30 05:30:00,63.9,62.3,29.78,East,90,0.0,0.0,93,0.00,,,0.00,fowsr,2013-05-30 09:30:00,
2013-05-30 05:35:00,63.9,62.3,29.78,East,90,0.0,0.0,93,0.00,,,0.00,fowsr,2013-05-30 09:35:00,
2013-05-30 05:40:00,63.9,62.3,29.79,East,90,0.0,0.0,93,0.00,,,0.00,fowsr,2013-05-30 09:40:00,
2013-05-30 05:45:00,63.7,62.1,29.79,East,90,0.0,0.0,93,0.00,,,0.00,fowsr,2013-05-30 09:45:00,
2013-05-30 05:50:00,63.7,62.1,29.79,SW,225,0.0,0.0,93,0.00,,,0.00,fowsr,2013-05-30 09:50:00,
2013-05-30 05:55:00,63.7,62.1,29.80,SW,225,0.0,0.0,93,0.00,,,0.00,fowsr,2013-05-30 09:55:00,
2013-05-30 06:00:00,63.5,61.9,29.80,SW,225,0.0,0.0,93,0.00,,,0.00,fowsr,2013-05-30 10:00:00,
2013-05-30 06:05:00,63.5,61.9,29.80,SW,225,0.0,0.0,93,0.00,,,0.00,fowsr,2013-05-30 10:05:00,
2013-05-30 06:10:00,63.5,61.9,29.80,SW,225,0.0,0.0,93,0.00,,,0.00,fowsr,2013-05-30 10:10:00,
2013-05-30 06:15:00,63.3,62.0,29.80,SW,225,0.0,0.0,94,0.00,,,0.00,fowsr,2013-05-30 10:15:00,
2013-05-30 06:20:00,63.3,62.0,29.80,SW,225,0.0,0.0,94,0.00,,,0.00,fowsr,2013-05-30 10:20:00,
2013-05-30 06:25:00,63.3,62.0,29.80,SW,225,0.0,0.0,94,0.00,,,0.00,fowsr,2013-05-30 10:25:00,
2013-05-30 06:30:00,63.3,62.0,29.80,SW,225,0.0,0.0,94,0.00,,,0.00,fowsr,2013-05-30 10:30:00,
2013-05-30 06:35:00,63.3,62.0,29.80,SW,225,0.0,0.0,94,0.00,,,0.00,fowsr,2013-05-30 10:35:00,
2013-05-30 06:40:00,63.3,62.0,29.80,SW,225,0.0,0.0,94,0.00,,,0.00,fowsr,2013-05-30 10:40:00,
2013-05-30 06:45:00,63.3,62.0,29.80,SW,225,0.0,0.0,94,0.00,,,0.00,fowsr,2013-05-30 10:45:00,
2013-05-30 06:50:00,63.3,62.0,29.80,SW,225,0.0,0.0,94,0.00,,,0.00,fowsr,2013-05-30 10:50:00,
2013-05-30 06:55:00,63.5,62.4,29.80,SW,225,0.0,0.0,95,0.00,,,0.00,fowsr,2013-05-30 10:55:00,
2013-05-30 07:00:00,63.7,62.5,29.80,SW,225,0.0,0.0,95,0.00,,,0.00,fowsr,2013-05-30 11:00:00,
2013-05-30 07:05:00,63.7,62.5,29.80,SW,225,0.0,0.0,95,0.00,,,0.00,fowsr,2013-05-30 11:05:00,
2013-05-30 07:10:00,63.9,62.7,29.80,SW,225,0.0,0.0,95,0.00,,,0.00,fowsr,2013-05-30 11:10:00,
2013-05-30 07:15:00,64.2,63.3,29.81,SW,225,0.0,0.0,96,0.00,,,0.00,fowsr,2013-05-30 11:15:00,
2013-05-30 07:20:00,64.2,63.3,29.81,SW,225,0.0,0.0,96,0.00,,,0.00,fowsr,2013-05-30 11:20:00,
2013-05-30 07:25:00,64.6,63.7,29.81,SW,225,0.0,0.0,96,0.00,,,0.00,fowsr,2013-05-30 11:25:00,
2013-05-30 07:30:00,64.8,63.9,29.81,SE,135,0.0,0.0,96,0.00,,,0.00,fowsr,2013-05-30 11:30:00,
2013-05-30 07:35:00,65.1,64.4,29.81,SE,135,0.0,0.0,97,0.00,,,0.00,fowsr,2013-05-30 11:35:00,
2013-05-30 07:40:00,65.5,64.8,29.81,East,90,0.0,0.7,97,0.00,,,0.00,fowsr,2013-05-30 11:40:00,
2013-05-30 07:45:00,65.8,65.2,29.81,East,90,0.0,0.0,97,0.00,,,0.00,fowsr,2013-05-30 11:45:00,
2013-05-30 07:50:00,66.2,65.3,29.81,East,90,0.0,0.0,96,0.00,,,0.00,fowsr,2013-05-30 11:50:00,
2013-05-30 07:55:00,66.7,65.8,29.81,SE,135,0.0,0.7,96,0.00,,,0.00,fowsr,2013-05-30 11:55:00,
2013-05-30 08:00:00,67.3,66.4,29.81,East,90,0.0,1.6,96,0.00,,,0.00,fowsr,2013-05-30 12:00:00,
2013-05-30 08:10:00,68.4,67.2,29.82,SE,135,0.0,0.0,95,0.00,,,0.00,fowsr,2013-05-30 12:10:00,
2013-05-30 08:15:00,68.7,67.6,29.82,SE,135,0.0,0.0,95,0.00,,,0.00,fowsr,2013-05-30 12:15:00,
2013-05-30 08:20:00,68.9,67.5,29.82,SE,135,0.7,1.6,94,0.00,,,0.00,fowsr,2013-05-30 12:20:00,
2013-05-30 08:25:00,69.3,67.6,29.82,SE,135,0.7,3.8,93,0.00,,,0.00,fowsr,2013-05-30 12:25:00,
2013-05-30 08:30:00,69.8,67.9,29.82,SE,135,0.0,0.7,92,0.00,,,0.00,fowsr,2013-05-30 12:30:00,
2013-05-30 08:35:00,70.2,68.0,29.82,SE,135,1.6,3.1,91,0.00,,,0.00,fowsr,2013-05-30 12:35:00,
2013-05-30 08:40:00,70.3,67.9,29.82,SE,135,0.0,0.7,90,0.00,,,0.00,fowsr,2013-05-30 12:40:00,
2013-05-30 08:45:00,70.9,68.2,29.82,NW,315,0.0,0.0,89,0.00,,,0.00,fowsr,2013-05-30 12:45:00,
2013-05-30 08:50:00,71.2,68.6,29.82,SE,135,0.0,0.7,89,0.00,,,0.00,fowsr,2013-05-30 12:50:00,
2013-05-30 08:55:00,71.6,68.4,29.83,SE,135,0.7,1.6,87,0.00,,,0.00,fowsr,2013-05-30 12:55:00,
2013-05-30 09:00:00,72.0,68.7,29.82,SE,135,0.7,3.1,87,0.00,,,0.00,fowsr,2013-05-30 13:00:00,
2013-05-30 09:05:00,72.3,68.6,29.82,SE,135,0.7,2.2,85,0.00,,,0.00,fowsr,2013-05-30 13:05:00,
2013-05-30 09:10:00,73.0,68.7,29.82,SE,135,0.0,0.0,83,0.00,,,0.00,fowsr,2013-05-30 13:10:00,
2013-05-30 09:15:00,73.6,69.5,29.82,West,270,0.0,0.7,84,0.00,,,0.00,fowsr,2013-05-30 13:15:00,
2013-05-30 09:25:00,74.7,69.7,29.82,East,90,0.0,0.7,81,0.00,,,0.00,fowsr,2013-05-30 13:25:00,
2013-05-30 09:30:00,75.2,69.4,29.82,East,90,0.7,3.1,78,0.00,,,0.00,fowsr,2013-05-30 13:30:00,
2013-05-30 09:35:00,75.7,69.6,29.82,East,90,0.7,3.1,77,0.00,,,0.00,fowsr,2013-05-30 13:35:00,
2013-05-30 09:40:00,76.1,69.7,29.82,SE,135,0.0,1.6,76,0.00,,,0.00,fowsr,2013-05-30 13:40:00,
2013-05-30 09:45:00,77.0,69.9,29.82,SE,135,0.0,1.6,74,0.00,,,0.00,fowsr,2013-05-30 13:45:00,
2013-05-30 09:50:00,77.5,70.4,29.82,South,180,0.7,2.2,74,0.00,,,0.00,fowsr,2013-05-30 13:50:00,
2013-05-30 09:55:00,78.1,70.3,29.82,South,180,0.0,0.7,72,0.00,,,0.00,fowsr,2013-05-30 13:55:00,
2013-05-30 10:00:00,78.4,70.6,29.82,SE,135,0.0,0.0,72,0.00,,,0.00,fowsr,2013-05-30 14:00:00,
2013-05-30 10:05:00,79.0,70.2,29.82,SE,135,0.0,0.0,69,0.00,,,0.00,fowsr,2013-05-30 14:05:00,
2013-05-30 10:10:00,79.3,70.5,29.82,SE,135,0.0,0.7,69,0.00,,,0.00,fowsr,2013-05-30 14:10:00,
2013-05-30 10:15:00,79.7,70.8,29.82,SE,135,0.0,0.7,69,0.00,,,0.00,fowsr,2013-05-30 14:15:00,
2013-05-30 10:20:00,80.1,71.2,29.82,SE,135,0.0,0.0,69,0.00,,,0.00,fowsr,2013-05-30 14:20:00,
2013-05-30 10:25:00,80.2,70.3,29.82,SW,225,0.7,1.6,66,0.00,,,0.00,fowsr,2013-05-30 14:25:00,
2013-05-30 10:30:00,80.6,70.3,29.82,SE,135,0.0,0.7,65,0.00,,,0.00,fowsr,2013-05-30 14:30:00,
2013-05-30 10:35:00,80.2,70.0,29.82,SE,135,0.7,2.2,65,0.00,,,0.00,fowsr,2013-05-30 14:35:00,
2013-05-30 10:40:00,80.2,69.6,29.82,SE,135,0.7,3.1,64,0.00,,,0.00,fowsr,2013-05-30 14:40:00,
2013-05-30 10:45:00,80.6,69.2,29.82,South,180,0.7,2.2,62,0.00,,,0.00,fowsr,2013-05-30 14:45:00,
2013-05-30 10:50:00,80.2,69.6,29.82,SE,135,2.2,4.5,64,0.00,,,0.00,fowsr,2013-05-30 14:50:00,
2013-05-30 10:55:00,80.1,69.8,29.82,South,180,0.0,2.2,65,0.00,,,0.00,fowsr,2013-05-30 14:55:00,
2013-05-30 11:00:00,80.1,70.2,29.83,South,180,0.0,0.7,66,0.00,,,0.00,fowsr,2013-05-30 15:00:00,
2013-05-30 11:05:00,79.9,69.3,29.82,SE,135,0.0,2.2,64,0.00,,,0.00,fowsr,2013-05-30 15:05:00,
2013-05-30 11:10:00,79.7,69.5,29.82,South,180,0.0,0.0,65,0.00,,,0.00,fowsr,2013-05-30 15:10:00,
2013-05-30 11:15:00,79.5,69.7,29.82,North,0,0.7,2.2,66,0.00,,,0.00,fowsr,2013-05-30 15:15:00,
2013-05-30 11:20:00,79.3,69.8,29.82,NW,315,0.0,0.7,67,0.00,,,0.00,fowsr,2013-05-30 15:20:00,
2013-05-30 11:25:00,78.8,69.3,29.82,North,0,0.0,0.7,67,0.00,,,0.00,fowsr,2013-05-30 15:25:00,
2013-05-30 11:30:00,78.8,69.7,29.82,West,270,0.0,1.6,68,0.00,,,0.00,fowsr,2013-05-30 15:30:00,
2013-05-30 11:35:00,78.8,69.3,29.82,SE,135,1.6,3.1,67,0.00,,,0.00,fowsr,2013-05-30 15:35:00,
2013-05-30 11:40:00,79.3,69.8,29.82,SE,135,0.0,0.0,67,0.00,,,0.00,fowsr,2013-05-30 15:40:00,
2013-05-30 11:45:00,79.9,70.7,29.81,North,0,0.0,1.6,68,0.00,,,0.00,fowsr,2013-05-30 15:45:00,
2013-05-30 11:50:00,80.1,70.8,29.81,NE,45,0.0,0.0,68,0.00,,,0.00,fowsr,2013-05-30 15:50:00,
2013-05-30 11:55:00,80.2,70.3,29.81,NW,315,0.0,0.7,66,0.00,,,0.00,fowsr,2013-05-30 15:55:00,
2013-05-30 12:00:00,79.9,69.3,29.81,SSE,157,0.7,2.2,64,0.00,,,0.00,fowsr,2013-05-30 16:00:00,
2013-05-30 12:05:00,80.1,69.4,29.82,SE,135,0.7,1.6,64,0.00,,,0.00,fowsr,2013-05-30 16:05:00,
2013-05-30 12:10:00,79.9,68.9,29.81,SE,135,0.7,2.2,63,0.00,,,0.00,fowsr,2013-05-30 16:10:00,
2013-05-30 12:15:00,79.9,69.6,29.81,SE,135,0.0,0.7,65,0.00,,,0.00,fowsr,2013-05-30 16:15:00,
2013-05-30 12:20:00,80.1,69.4,29.81,South,180,2.2,3.8,64,0.00,,,0.00,fowsr,2013-05-30 16:20:00,
2013-05-30 12:25:00,80.4,69.8,29.81,SW,225,0.7,2.2,64,0.00,,,0.00,fowsr,2013-05-30 16:25:00,
2013-05-30 12:30:00,81.0,69.9,29.81,SE,135,1.6,3.1,63,0.00,,,0.00,fowsr,2013-05-30 16:30:00,
2013-05-30 12:35:00,81.0,68.8,29.81,South,180,0.0,0.7,60,0.00,,,0.00,fowsr,2013-05-30 16:35:00,
2013-05-30 12:40:00,81.0,68.8,29.81,NW,315,0.0,1.6,60,0.00,,,0.00,fowsr,2013-05-30 16:40:00,
2013-05-30 12:45:00,81.0,68.4,29.80,NW,315,0.0,0.7,59,0.00,,,0.00,fowsr,2013-05-30 16:45:00,
2013-05-30 12:50:00,81.0,68.4,29.80,NW,315,0.0,0.7,59,0.00,,,0.00,fowsr,2013-05-30 16:50:00,
2013-05-30 12:55:00,81.7,68.3,29.80,South,180,0.0,1.6,57,0.00,,,0.00,fowsr,2013-05-30 16:55:00,
2013-05-30 13:00:00,81.7,68.3,29.80,SE,135,1.6,3.8,57,0.00,,,0.00,fowsr,2013-05-30 17:00:00,
2013-05-30 13:05:00,82.0,69.0,29.79,NW,315,0.0,0.7,58,0.00,,,0.00,fowsr,2013-05-30 17:05:00,
2013-05-30 13:10:00,82.2,68.4,29.79,NW,315,0.0,0.7,56,0.00,,,0.00,fowsr,2013-05-30 17:10:00,
2013-05-30 13:15:00,82.2,68.8,29.79,East,90,0.0,0.7,57,0.00,,,0.00,fowsr,2013-05-30 17:15:00,
2013-05-30 13:20:00,82.4,68.1,29.79,SSE,157,0.7,2.2,55,0.00,,,0.00,fowsr,2013-05-30 17:20:00,
2013-05-30 13:25:00,82.4,67.7,29.78,SE,135,0.7,3.1,54,0.00,,,0.00,fowsr,2013-05-30 17:25:00,
2013-05-30 13:30:00,82.6,68.3,29.78,South,180,0.0,1.6,55,0.00,,,0.00,fowsr,2013-05-30 17:30:00,
2013-05-30 13:35:00,82.6,68.3,29.78,SE,135,1.6,3.1,55,0.00,,,0.00,fowsr,2013-05-30 17:35:00,
2013-05-30 13:40:00,82.9,67.8,29.78,SE,135,0.0,0.7,53,0.00,,,0.00,fowsr,2013-05-30 17:40:00,
2013-05-30 13:45:00,83.3,67.7,29.78,SE,135,2.2,4.5,52,0.00,,,0.00,fowsr,2013-05-30 17:45:00,
2013-05-30 13:50:00,83.5,67.0,29.77,SE,135,1.6,3.1,50,0.00,,,0.00,fowsr,2013-05-30 17:50:00,
2013-05-30 14:00:00,84.0,67.4,29.77,SE,135,1.6,2.2,50,0.00,,,0.00,fowsr,2013-05-30 18:00:00,
2013-05-30 14:05:00,84.0,67.4,29.77,SE,135,1.6,2.2,50,0.00,,,0.00,fowsr,2013-05-30 18:05:00,
2013-05-30 14:10:00,84.2,67.1,29.77,East,90,0.0,0.7,49,0.00,,,0.00,fowsr,2013-05-30 18:10:00,
2013-05-30 14:15:00,84.4,67.8,29.77,SE,135,0.0,0.0,50,0.00,,,0.00,fowsr,2013-05-30 18:15:00,
2013-05-30 14:20:00,84.6,67.0,29.77,SE,135,0.0,1.6,48,0.00,,,0.00,fowsr,2013-05-30 18:20:00,
2013-05-30 14:25:00,84.6,66.5,29.77,West,270,0.0,1.6,47,0.00,,,0.00,fowsr,2013-05-30 18:25:00,
2013-05-30 14:30:00,84.6,66.0,29.76,SE,135,2.2,3.8,46,0.00,,,0.00,fowsr,2013-05-30 18:30:00,
2013-05-30 14:35:00,84.6,66.0,29.76,SE,135,0.0,0.0,46,0.00,,,0.00,fowsr,2013-05-30 18:35:00,
2013-05-30 14:40:00,85.1,67.5,29.76,NW,315,0.0,1.6,48,0.00,,,0.00,fowsr,2013-05-30 18:40:00,
2013-05-30 14:45:00,85.5,66.8,29.76,SE,135,0.0,2.2,46,0.00,,,0.00,fowsr,2013-05-30 18:45:00,
2013-05-30 14:50:00,85.5,66.3,29.76,South,180,0.0,1.6,45,0.00,,,0.00,fowsr,2013-05-30 18:50:00,
2013-05-30 14:55:00,85.6,67.0,29.76,North,0,0.0,0.0,46,0.00,,,0.00,fowsr,2013-05-30 18:55:00,
2013-05-30 15:00:00,85.6,66.0,29.75,SE,135,0.7,2.2,44,0.00,,,0.00,fowsr,2013-05-30 19:00:00,
2013-05-30 15:05:00,85.6,66.0,29.75,SSE,157,2.2,3.8,44,0.00,,,0.00,fowsr,2013-05-30 19:05:00,
2013-05-30 15:10:00,85.6,66.0,29.75,West,270,0.0,0.7,44,0.00,,,0.00,fowsr,2013-05-30 19:10:00,
2013-05-30 15:15:00,85.6,66.0,29.75,SE,135,0.0,0.7,44,0.00,,,0.00,fowsr,2013-05-30 19:15:00,
2013-05-30 15:20:00,85.8,66.7,29.75,South,180,0.0,0.7,45,0.00,,,0.00,fowsr,2013-05-30 19:20:00,
2013-05-30 15:25:00,86.2,66.5,29.75,SE,135,2.2,4.5,44,0.00,,,0.00,fowsr,2013-05-30 19:25:00,
2013-05-30 15:30:00,86.4,65.6,29.75,SE,135,0.0,1.6,42,0.00,,,0.00,fowsr,2013-05-30 19:30:00,
2013-05-30 15:35:00,86.5,66.3,29.75,NW,315,0.0,2.2,43,0.00,,,0.00,fowsr,2013-05-30 19:35:00,
2013-05-30 15:40:00,86.5,66.3,29.75,SSE,157,0.7,2.2,43,0.00,,,0.00,fowsr,2013-05-30 19:40:00,
2013-05-30 15:45:00,86.5,66.8,29.74,SE,135,0.0,0.7,44,0.00,,,0.00,fowsr,2013-05-30 19:45:00,
2013-05-30 15:50:00,86.5,66.8,29.75,East,90,1.6,3.8,44,0.00,,,0.00,fowsr,2013-05-30 19:50:00,
2013-05-30 15:55:00,86.5,66.3,29.74,SE,135,0.0,0.7,43,0.00,,,0.00,fowsr,2013-05-30 19:55:00,
2013-05-30 16:00:00,86.5,66.3,29.74,SE,135,1.6,3.8,43,0.00,,,0.00,fowsr,2013-05-30 20:00:00,
2013-05-30 16:05:00,86.5,66.3,29.74,SE,135,1.6,3.8,43,0.00,,,0.00,fowsr,2013-05-30 20:05:00,
2013-05-30 16:10:00,86.7,67.0,29.74,NW,315,0.0,0.7,44,0.00,,,0.00,fowsr,2013-05-30 20:10:00,
2013-05-30 16:15:00,86.9,67.1,29.74,SW,225,2.2,5.4,44,0.00,,,0.00,fowsr,2013-05-30 20:15:00,
2013-05-30 16:20:00,86.7,67.0,29.74,SE,135,2.2,4.5,44,0.00,,,0.00,fowsr,2013-05-30 20:20:00,
2013-05-30 16:25:00,86.7,66.4,29.73,NW,315,0.0,0.7,43,0.00,,,0.00,fowsr,2013-05-30 20:25:00,
2013-05-30 16:30:00,86.5,66.3,29.73,SE,135,0.0,1.6,43,0.00,,,0.00,fowsr,2013-05-30 20:30:00,
2013-05-30 16:35:00,86.4,66.1,29.73,SE,135,2.2,3.8,43,0.00,,,0.00,fowsr,2013-05-30 20:35:00,
2013-05-30 16:40:00,86.4,66.6,29.73,SE,135,0.7,1.6,44,0.00,,,0.00,fowsr,2013-05-30 20:40:00,
2013-05-30 16:45:00,86.4,66.1,29.73,East,90,0.0,0.0,43,0.00,,,0.00,fowsr,2013-05-30 20:45:00,
2013-05-30 16:50:00,86.4,66.1,29.73,South,180,0.7,3.1,43,0.00,,,0.00,fowsr,2013-05-30 20:50:00,
2013-05-30 16:55:00,86.2,66.5,29.73,SE,135,3.1,3.8,44,0.00,,,0.00,fowsr,2013-05-30 20:55:00,
2013-05-30 17:05:00,86.2,66.5,29.73,SE,135,0.0,0.7,44,0.00,,,0.00,fowsr,2013-05-30 21:05:00,
2013-05-30 17:10:00,86.2,66.5,29.73,East,90,2.2,3.8,44,0.00,,,0.00,fowsr,2013-05-30 21:10:00,
2013-05-30 17:15:00,86.2,66.5,29.68,East,90,0.0,0.7,44,0.00,,,0.00,fowsr,2013-05-30 21:15:00,
2013-05-30 17:25:00,86.0,66.3,29.73,SE,135,0.0,0.7,44,0.00,,,0.00,fowsr,2013-05-30 21:25:00,
2013-05-30 17:30:00,86.0,66.3,29.73,East,90,0.0,1.6,44,0.00,,,0.00,fowsr,2013-05-30 21:30:00,
2013-05-30 17:35:00,86.0,66.3,29.73,SE,135,1.6,3.1,44,0.00,,,0.00,fowsr,2013-05-30 21:35:00,
2013-05-30 17:40:00,85.8,66.7,29.73,South,180,0.7,2.2,45,0.00,,,0.00,fowsr,2013-05-30 21:40:00,
2013-05-30 17:45:00,85.8,66.7,29.73,North,0,0.0,0.0,45,0.00,,,0.00,fowsr,2013-05-30 21:45:00,
2013-05-30 17:50:00,85.6,66.5,29.72,SE,135,0.7,1.6,45,0.00,,,0.00,fowsr,2013-05-30 21:50:00,
2013-05-30 17:55:00,85.6,67.0,29.73,SE,135,0.7,2.2,46,0.00,,,0.00,fowsr,2013-05-30 21:55:00,
2013-05-30 18:00:00,85.6,67.0,29.72,SE,135,0.0,0.7,46,0.00,,,0.00,fowsr,2013-05-30 22:00:00,
2013-05-30 18:05:00,85.8,66.7,29.72,East,90,1.6,3.1,45,0.00,,,0.00,fowsr,2013-05-30 22:05:00,
2013-05-30 18:10:00,85.8,66.7,29.73,SE,135,1.6,3.1,45,0.00,,,0.00,fowsr,2013-05-30 22:10:00,
2013-05-30 18:15:00,85.6,66.0,29.73,East,90,0.0,1.6,44,0.00,,,0.00,fowsr,2013-05-30 22:15:00,
2013-05-30 18:20:00,85.5,66.3,29.72,SE,135,0.0,1.6,45,0.00,,,0.00,fowsr,2013-05-30 22:20:00,
2013-05-30 18:25:00,85.5,66.3,29.73,SE,135,0.0,2.2,45,0.00,,,0.00,fowsr,2013-05-30 22:25:00,
2013-05-30 18:30:00,85.3,66.2,29.73,SE,135,0.7,2.2,45,0.00,,,0.00,fowsr,2013-05-30 22:30:00,
2013-05-30 18:35:00,85.1,66.0,29.73,SE,135,0.0,0.0,45,0.00,,,0.00,fowsr,2013-05-30 22:35:00,
2013-05-30 18:40:00,85.1,66.5,29.73,NE,45,0.0,0.0,46,0.00,,,0.00,fowsr,2013-05-30 22:40:00,
2013-05-30 18:45:00,85.1,66.5,29.73,SE,135,0.0,1.6,46,0.00,,,0.00,fowsr,2013-05-30 22:45:00,
2013-05-30 18:50:00,85.1,66.5,29.73,East,90,0.0,0.0,46,0.00,,,0.00,fowsr,2013-05-30 22:50:00,
2013-05-30 18:55:00,84.7,66.2,29.73,SE,135,0.7,2.2,46,0.00,,,0.00,fowsr,2013-05-30 22:55:00,
2013-05-30 19:00:00,84.7,66.2,29.73,SE,135,0.0,0.7,46,0.00,,,0.00,fowsr,2013-05-30 23:00:00,
2013-05-30 19:05:00,84.7,67.2,29.74,SE,135,0.0,0.7,48,0.00,,,0.00,fowsr,2013-05-30 23:05:00,
2013-05-30 19:10:00,84.6,66.5,29.73,East,90,0.0,0.7,47,0.00,,,0.00,fowsr,2013-05-30 23:10:00,
2013-05-30 19:15:00,84.4,66.4,29.73,SE,135,0.0,0.7,47,0.00,,,0.00,fowsr,2013-05-30 23:15:00,
2013-05-30 19:20:00,84.4,66.8,29.74,SE,135,0.0,0.7,48,0.00,,,0.00,fowsr,2013-05-30 23:20:00,
2013-05-30 19:25:00,84.2,66.7,29.73,SE,135,0.0,0.0,48,0.00,,,0.00,fowsr,2013-05-30 23:25:00,
2013-05-30 19:30:00,84.0,67.4,29.74,SE,135,0.0,0.0,50,0.00,,,0.00,fowsr,2013-05-30 23:30:00,
2013-05-30 19:35:00,83.7,68.4,29.73,SE,135,0.0,0.0,53,0.00,,,0.00,fowsr,2013-05-30 23:35:00,
2013-05-30 19:40:00,83.1,68.0,29.74,SE,135,0.0,0.7,53,0.00,,,0.00,fowsr,2013-05-30 23:40:00,
2013-05-30 19:45:00,82.6,67.9,29.73,SE,135,0.0,0.0,54,0.00,,,0.00,fowsr,2013-05-30 23:45:00,
2013-05-30 19:50:00,82.0,69.0,29.73,SE,135,0.0,0.0,58,0.00,,,0.00,fowsr,2013-05-30 23:50:00,
2013-05-30 19:55:00,81.5,68.5,29.73,SE,135,0.0,0.0,58,0.00,,,0.00,fowsr,2013-05-30 23:55:00,
2013-05-30 20:00:00,81.0,68.4,29.73,SE,135,0.0,0.0,59,0.00,,,0.00,fowsr,2013-05-31 00:00:00,
2013-05-30 20:05:00,80.2,68.5,29.73,SE,135,0.0,0.0,61,0.00,,,0.00,fowsr,2013-05-31 00:05:00,
2013-05-30 20:10:00,79.9,68.6,29.73,SE,135,0.0,0.0,62,0.00,,,0.00,fowsr,2013-05-31 00:10:00,
2013-05-30 20:15:00,79.3,68.4,29.73,SE,135,0.0,0.0,63,0.00,,,0.00,fowsr,2013-05-31 00:15:00,
2013-05-30 20:20:00,79.0,68.4,29.73,SE,135,0.0,0.0,64,0.00,,,0.00,fowsr,2013-05-31 00:20:00,
2013-05-30 20:30:00,77.9,68.5,29.73,SE,135,0.0,0.0,67,0.00,,,0.00,fowsr,2013-05-31 00:30:00,
2013-05-30 20:35:00,77.4,68.3,29.73,SE,135,0.0,0.0,68,0.00,,,0.00,fowsr,2013-05-31 00:35:00,
2013-05-30 20:40:00,77.2,68.5,29.72,SE,135,0.0,0.0,69,0.00,,,0.00,fowsr,2013-05-31 00:40:00,
2013-05-30 20:45:00,76.6,68.3,29.73,SE,135,0.0,0.0,70,0.00,,,0.00,fowsr,2013-05-31 00:45:00,
2013-05-30 20:50:00,76.5,68.4,29.72,SE,135,0.0,0.0,71,0.00,,,0.00,fowsr,2013-05-31 00:50:00,
2013-05-30 20:55:00,76.3,68.3,29.72,SE,135,0.0,0.0,71,0.00,,,0.00,fowsr,2013-05-31 00:55:00,
2013-05-30 21:00:00,76.1,68.1,29.72,SE,135,0.0,0.0,71,0.00,,,0.00,fowsr,2013-05-31 01:00:00,
2013-05-30 21:05:00,75.9,67.9,29.72,SE,135,0.0,0.0,71,0.00,,,0.00,fowsr,2013-05-31 01:05:00,
2013-05-30 21:10:00,75.6,67.9,29.72,SE,135,0.0,0.0,72,0.00,,,0.00,fowsr,2013-05-31 01:10:00,
2013-05-30 21:15:00,75.4,67.7,29.72,SE,135,0.0,0.0,72,0.00,,,0.00,fowsr,2013-05-31 01:15:00,
2013-05-30 21:20:00,75.0,68.0,29.72,SE,135,0.0,0.0,74,0.00,,,0.00,fowsr,2013-05-31 01:20:00,
2013-05-30 21:25:00,74.8,67.8,29.72,SE,135,0.0,0.0,74,0.00,,,0.00,fowsr,2013-05-31 01:25:00,
2013-05-30 21:30:00,74.7,67.7,29.72,SE,135,0.0,0.0,74,0.00,,,0.00,fowsr,2013-05-31 01:30:00,
2013-05-30 21:35:00,74.5,67.8,29.73,SE,135,0.0,0.0,75,0.00,,,0.00,fowsr,2013-05-31 01:35:00,
2013-05-30 21:40:00,74.3,67.6,29.73,SE,135,0.0,0.0,75,0.00,,,0.00,fowsr,2013-05-31 01:40:00,
2013-05-30 21:45:00,74.1,67.5,29.73,SE,135,0.0,0.0,75,0.00,,,0.00,fowsr,2013-05-31 01:45:00,
2013-05-30 21:50:00,74.1,67.5,29.73,SE,135,0.0,0.0,75,0.00,,,0.00,fowsr,2013-05-31 01:50:00,
2013-05-30 21:55:00,74.1,67.5,29.73,SE,135,0.0,0.0,75,0.00,,,0.00,fowsr,2013-05-31 01:55:00,
2013-05-30 22:00:00,74.1,67.8,29.73,SE,135,0.0,0.0,76,0.00,,,0.00,fowsr,2013-05-31 02:00:00,
2013-05-30 22:05:00,74.1,67.8,29.73,SE,135,0.0,0.0,76,0.00,,,0.00,fowsr,2013-05-31 02:05:00,
2013-05-30 22:10:00,74.1,67.8,29.74,SE,135,0.0,0.0,76,0.00,,,0.00,fowsr,2013-05-31 02:10:00,
2013-05-30 22:15:00,74.1,67.8,29.74,SE,135,0.0,0.0,76,0.00,,,0.00,fowsr,2013-05-31 02:15:00,
2013-05-30 22:20:00,74.1,68.0,29.74,South,180,0.0,0.7,77,0.00,,,0.00,fowsr,2013-05-31 02:20:00,
2013-05-30 22:25:00,74.3,68.2,29.74,East,90,0.0,0.0,77,0.00,,,0.00,fowsr,2013-05-31 02:25:00,
2013-05-30 22:30:00,74.5,68.1,29.73,NE,45,0.0,0.0,76,0.00,,,0.00,fowsr,2013-05-31 02:30:00,
2013-05-30 22:40:00,75.0,68.9,29.74,SE,135,0.0,0.7,77,0.00,,,0.00,fowsr,2013-05-31 02:40:00,
2013-05-30 22:45:00,75.4,69.0,29.74,East,90,0.0,0.7,76,0.00,,,0.00,fowsr,2013-05-31 02:45:00,
2013-05-30 22:50:00,75.6,69.1,29.74,SE,135,0.7,1.6,76,0.00,,,0.00,fowsr,2013-05-31 02:50:00,
2013-05-30 22:55:00,75.6,69.1,29.74,SE,135,0.0,0.0,76,0.00,,,0.00,fowsr,2013-05-31 02:55:00,
2013-05-30 23:00:00,75.6,69.1,29.74,SE,135,0.0,0.7,76,0.00,,,0.00,fowsr,2013-05-31 03:00:00,
2013-05-30 23:05:00,75.7,69.3,29.74,SE,135,0.0,0.7,76,0.00,,,0.00,fowsr,2013-05-31 03:05:00,
2013-05-30 23:10:00,75.9,69.5,29.73,East,90,0.0,0.0,76,0.00,,,0.00,fowsr,2013-05-31 03:10:00,
2013-05-30 23:15:00,75.9,69.8,29.74,SE,135,0.0,0.7,77,0.00,,,0.00,fowsr,2013-05-31 03:15:00,
2013-05-30 23:20:00,76.1,69.7,29.73,SSE,157,0.0,0.0,76,0.00,,,0.00,fowsr,2013-05-31 03:20:00,
2013-05-30 23:25:00,76.1,69.7,29.74,East,90,0.7,1.6,76,0.00,,,0.00,fowsr,2013-05-31 03:25:00,
2013-05-30 23:30:00,76.3,69.8,29.74,SE,135,0.0,0.7,76,0.00,,,0.00,fowsr,2013-05-31 03:30:00,
2013-05-30 23:35:00,76.3,69.8,29.74,East,90,0.0,1.6,76,0.00,,,0.00,fowsr,2013-05-31 03:35:00,
2013-05-30 23:40:00,76.3,69.8,29.74,East,90,0.0,0.7,76,0.00,,,0.00,fowsr,2013-05-31 03:40:00,
2013-05-30 23:45:00,76.3,69.8,29.74,SE,135,0.7,3.1,76,0.00,,,0.00,fowsr,2013-05-31 03:45:00,
2013-05-30 23:50:00,76.3,69.8,29.74,SE,135,0.0,0.7,76,0.00,,,0.00,fowsr,2013-05-31 03:50:00,
2013-05-30 23:55:00,76.3,69.5,29.74,East,90,1.6,3.1,75,0.00,,,0.00,fowsr,2013-05-31 03:55:00,